Wind_Speed
29 24 28 24 25 22 21 24 24 26 25 23 22 21 20 18 19 19 19 18 18 17 14 12 11 10 10 9 10 10 9 10 10 10 7 8 9 8 7 7 8 8 8
28 26 25 25 21 23 24 23 24 26 27 26 25 24 21 19 18 19 20 19 19 18 19 14 14 12 14 11 10 13 16 14 12 13 11 9 7 7 8 9 9 9 9
23 24 24 25 25 25 25 26 25 26 28 26 26 27 24 23 20 22 21 19 18 18 19 16 17 14 14 14 13 13 14 13 14 12 10 9 9 9 9 9 9 9 9
20 22 24 24 27 25 24 24 24 27 25 26 28 30 28 25 23 24 23 23 20 16 18 17 17 15 15 16 14 13 14 14 13 12 12 13 13 11 11 11 10 7 7
18 20 23 23 22 22 24 26 24 24 25 28 29 30 28 24 25 26 26 21 18 18 17 18 18 18 19 18 17 18 19 17 14 15 15 13 13 12 11 9 11 7 7
14 16 17 17 17 19 21 20 21 21 23 22 22 18 21 21 25 28 27 21 22 21 19 22 19 21 22 21 22 22 21 18 17 16 15 16 15 13 13 13 12 8 5
10 10 11 12 15 18 18 16 19 20 19 20 23 25 21 16 20 23 26 23 20 21 22 18 18 20 21 18 19 21 22 22 23 20 19 18 15 13 11 8 8 8 6
7 6 7 10 12 12 13 17 19 19 19 19 21 23 18 15 17 17 19 20 19 19 21 23 25 22 20 20 19 19 21 23 24 25 22 19 13 10 9 7 8 7 8
8 6 4 4 5 5 8 13 15 16 17 15 16 16 16 17 17 13 11 12 16 20 21 22 24 27 30 27 26 20 20 21 23 24 24 22 19 16 12 9 9 9 7
9 8 7 6 5 4 4 5 5 5 8 10 11 14 17 16 18 21 23 19 22 21 20 20 24 27 26 29 28 22 21 21 21 22 20 17 14 13 11 13 8 11 8
12 10 8 8 7 7 6 5 5 4 4 4 6 7 7 9 12 16 20 19 20 22 23 19 23 25 27 27 26 24 23 20 23 21 14 14 13 11 11 12 12 9 8
12 11 10 10 9 7 6 5 4 4 5 5 4 1 2 3 5 8 11 16 17 20 18 14 13 13 14 14 15 16 18 20 21 21 19 15 12 9 7 5 4 5 5
13 11 10 8 7 6 7 6 5 5 6 3 2 1 2 1 2 2 2 4 4 0 2 4 4 8 7 5 9 7 9 16 18 17 16 12 13 7 10 11 11 12 13
14 12 9 7 7 6 6 5 6 6 4 3 3 2 3 3 2 2 0 2 3 3 3 4 4 2 5 6 4 6 2 9 10 13 15 14 16 18 14 14 14 13 15
14 11 10 8 6 7 6 5 4 3 3 2 1 1 2 3 3 3 4 3 4 6 6 7 7 6 9 7 9 8 1 7 9 12 18 20 17 15 11 7 7 6 8
13 10 9 10 8 6 7 7 6 6 4 2 1 1 1 2 2 1 0 2 5 8 7 6 8 8 8 6 8 9 7 9 11 13 15 16 16 13 10 7 6 8 11
11 12 11 10 8 7 7 6 7 7 4 2 2 2 3 4 4 7 8 7 5 5 6 5 7 5 5 5 7 7 7 9 11 11 11 10 9 9 10 10 9 10 10
11 14 11 10 9 7 7 6 5 4 4 4 6 6 7 8 8 7 6 5 3 4 6 5 4 4 4 4 4 5 7 8 8 9 9 9 10 11 11 10 9 9 9
12 12 10 9 9 8 8 6 5 3 2 3 4 5 7 8 8 6 5 2 2 3 2 2 3 3 3 3 3 5 6 7 7 7 7 8 9 9 9 9 8 8 8
11 13 12 9 9 8 7 6 5 4 4 3 3 4 7 7 5 4 4 4 3 3 2 2 2 2 3 4 4 5 6 7 7 7 8 7 8 9 10 9 8 8 8
11 15 11 9 9 8 8 7 6 5 3 3 3 5 5 5 4 5 4 3 2 1 1 2 3 3 3 4 5 5 6 8 9 9 10 10 11 11 9 8 8 8 8
13 13 11 9 9 9 8 7 6 5 4 4 4 4 5 6 5 5 5 6 5 5 4 5 5 5 5 5 6 7 7 8 9 9 10 11 11 10 9 8 8 9 9
13 11 9 9 9 8 8 7 6 6 5 4 4 4 6 6 6 6 6 6 6 6 6 7 7 7 7 7 6 7 8 9 10 11 11 11 11 11 10 10 9 10 11
12 11 11 10 8 8 7 7 6 6 5 4 5 6 7 7 7 8 8 7 7 7 7 7 7 8 8 9 9 9 9 8 10 11 12 11 12 13 12 12 13 13 12
13 13 12 12 11 10 8 8 7 7 6 5 6 7 8 9 9 8 8 9 9 9 8 8 9 9 10 12 12 12 12 15 14 14 13 14 13 13 14 13 13 13 13
14 14 12 11 10 9 9 10 10 10 10 10 8 7 7 8 9 10 10 11 12 12 12 11 12 13 13 14 15 17 18 17 18 21 17 15 15 17 17 17 16 16 16
Wind_Direction
215 219 219 223 223 224 228 234 237 237 240 245 247 247 249 250 244 242 238 241 242 242 239 238 245 254 255 248 244 250 235 229 252 269 280 288 288 291 274 265 259 259 264
220 221 223 222 223 226 229 230 235 236 238 241 244 246 248 253 244 236 239 239 237 250 251 251 242 241 251 245 244 249 255 256 256 258 267 266 268 275 273 268 262 258 259
218 221 226 224 223 225 226 230 233 237 240 238 239 243 247 247 249 253 247 245 246 258 245 242 254 246 250 249 255 258 263 252 256 256 255 254 271 276 272 269 263 257 260
212 217 223 222 222 224 227 226 228 238 236 233 232 237 241 247 250 249 252 256 257 255 244 237 244 244 246 256 259 258 267 256 244 241 258 262 263 264 254 255 258 251 250
212 217 226 230 228 228 232 234 234 235 233 239 239 238 239 241 244 249 250 250 251 251 245 240 246 247 254 261 262 263 259 253 251 252 255 258 259 251 241 258 257 265 263
218 224 229 229 228 231 231 230 228 231 235 225 223 229 239 242 247 248 251 248 251 248 247 250 248 249 254 262 261 262 260 249 252 254 260 253 255 256 263 250 247 238 251
212 221 228 235 235 233 233 226 229 229 225 226 232 236 237 248 251 255 256 251 253 251 250 251 251 253 256 253 260 261 258 251 248 249 254 256 259 250 256 240 230 233 229
164 175 202 219 231 233 230 232 236 234 234 231 236 234 248 246 264 273 263 251 250 253 252 252 258 259 252 248 259 258 255 256 257 250 247 253 253 246 228 231 226 212 217
135 137 159 186 204 210 225 232 238 236 233 231 237 243 249 251 256 256 255 250 251 252 254 254 253 256 260 264 261 256 256 249 246 250 249 252 251 250 239 224 200 199 227
121 110 107 120 120 132 162 187 200 221 240 249 251 252 257 262 259 256 258 257 256 255 253 256 259 253 253 256 257 254 252 247 236 246 243 242 244 248 220 208 241 225 232
126 116 110 107 107 114 118 137 148 154 171 194 217 237 249 257 259 258 251 252 255 254 249 253 261 268 254 248 249 249 249 256 244 239 219 220 217 216 220 218 221 233 233
128 115 109 103 102 110 136 139 141 153 140 141 150 196 270 284 303 283 260 242 251 250 243 244 251 248 238 236 246 253 253 249 241 218 206 199 203 201 204 201 196 214 212
139 131 121 117 116 111 120 128 132 160 168 187 238 245 262 285 332 27 112 153 160 226 257 234 274 270 240 236 252 250 243 224 212 188 181 184 168 151 143 135 124 123 116
144 140 141 143 133 125 122 113 124 159 175 168 177 218 265 303 312 319 212 150 166 157 138 103 106 118 73 76 89 90 204 200 187 186 164 148 142 134 132 127 119 112 101
146 145 143 143 150 130 121 115 119 129 140 130 137 218 251 278 277 284 255 244 202 186 167 151 146 141 115 97 87 87 152 97 118 153 148 142 137 133 134 138 123 125 129
150 157 157 152 152 138 136 115 99 103 98 102 162 214 303 266 236 257 126 166 165 149 153 149 133 125 114 109 102 99 102 105 126 144 148 144 141 136 137 136 138 144 134
156 157 158 158 160 153 156 156 139 103 101 91 89 123 137 133 123 125 122 121 117 119 123 114 107 113 118 114 113 122 127 134 138 146 143 142 139 131 144 144 135 131 136
162 166 163 170 168 162 162 158 152 153 145 99 82 107 119 131 133 126 121 110 106 103 111 111 121 136 131 126 127 127 134 140 147 151 146 149 153 153 159 147 146 150 159
164 165 163 160 154 158 154 154 152 150 130 127 136 134 149 157 163 171 186 208 179 144 137 162 177 171 163 150 147 147 153 164 157 149 153 154 157 160 159 161 162 164 165
176 174 166 163 158 159 162 163 158 174 186 196 194 189 192 191 200 221 247 262 237 233 207 205 185 170 175 177 170 162 161 156 160 169 166 165 169 170 172 173 181 188 195
169 169 173 179 182 183 185 185 191 197 192 188 199 206 212 200 229 224 206 235 264 269 207 200 186 188 192 194 191 185 179 177 181 178 177 176 174 174 180 186 192 194 191
180 173 177 184 185 186 187 193 196 191 179 170 155 169 184 196 219 215 206 207 212 215 216 219 223 223 222 210 201 198 198 197 192 186 181 180 183 190 194 200 203 201 203
186 190 187 179 181 178 186 191 191 193 197 200 190 183 195 207 215 212 210 215 221 225 231 234 236 234 227 219 215 209 206 201 195 189 191 197 203 206 210 212 209 207 210
189 193 189 190 188 188 194 195 205 214 225 234 237 232 227 226 228 231 231 233 235 239 240 241 238 232 225 216 215 212 209 203 201 204 202 207 211 214 215 221 217 218 214
192 194 193 191 189 192 200 219 226 229 234 247 251 249 242 236 235 232 232 235 241 245 250 242 237 235 230 223 221 218 218 221 213 210 214 219 224 225 225 228 224 226 224
195 196 194 194 196 200 220 232 235 239 247 257 262 253 238 237 236 234 231 232 235 240 240 239 238 236 232 234 234 234 236 233 227 229 226 231 232 230 228 228 229 227 224
Height
793 796 800 805 809 813 817 819 822 825 827 829 830 832 833 835 837 839 838 841 843 844 844 845 845 846 846 846 846 848 849 850 849 846 848 848 847 846 846 845 844 845 845
788 792 796 800 804 808 810 813 816 819 822 824 826 827 828 829 831 831 833 835 836 838 840 840 840 841 843 842 843 844 845 846 847 845 845 845 844 844 843 843 843 843 842
784 788 792 795 799 801 804 806 809 812 815 818 820 821 823 823 827 826 826 829 831 832 833 835 836 837 837 839 840 840 840 841 842 843 841 842 842 841 840 840 840 839 838
778 782 785 788 791 795 798 800 802 804 807 809 811 814 816 818 820 823 825 826 826 826 828 829 830 831 832 833 836 836 837 838 838 838 838 838 837 836 836 837 837 836 835
772 775 778 782 785 787 790 792 795 797 799 801 804 806 808 811 813 815 817 819 819 820 823 823 824 824 825 828 830 831 833 834 834 834 833 832 831 832 832 832 832 832 832
768 770 773 777 778 780 783 786 788 791 793 794 797 800 803 805 807 807 811 812 814 815 816 818 818 819 820 821 823 825 827 829 830 830 828 828 826 827 827 827 828 829 829
766 767 769 771 773 776 778 780 783 785 788 789 792 795 797 799 800 801 804 807 808 810 810 812 813 815 815 816 817 818 820 821 823 824 825 824 822 821 821 822 823 824 825
764 765 767 768 770 771 773 775 778 781 783 785 787 789 792 795 796 797 798 800 802 804 804 805 806 807 809 810 812 813 814 814 815 816 817 818 818 818 817 818 820 821 821
763 765 766 767 768 769 770 772 775 776 778 780 782 784 789 790 791 793 795 795 796 797 799 799 798 799 801 804 806 806 807 808 808 809 809 810 811 811 812 814 816 818 817
764 765 766 768 768 768 770 772 773 775 776 778 779 782 783 783 786 788 790 790 791 791 791 792 791 791 794 795 797 798 799 800 801 801 802 804 805 806 807 809 811 812 813
765 766 768 768 768 769 770 772 773 775 777 778 779 780 780 781 780 781 782 783 784 786 785 783 785 784 785 787 788 789 791 793 794 795 798 799 801 803 804 805 806 809 809
765 766 768 768 770 772 773 773 774 776 778 779 780 780 780 780 779 778 777 778 779 780 780 780 780 779 779 780 781 782 783 786 787 789 792 796 799 802 803 803 803 805 805
763 765 768 770 772 773 773 774 775 776 777 778 779 779 779 779 778 777 776 777 776 777 777 778 778 779 777 775 778 777 779 782 783 786 789 794 792 797 797 800 801 803 806
762 765 768 770 771 773 773 774 775 776 777 778 778 778 779 779 778 778 777 777 777 777 778 778 779 780 775 776 777 776 781 782 781 786 790 794 795 797 804 805 805 806 808
760 765 767 768 770 771 772 774 775 775 776 777 778 778 779 779 778 778 778 778 779 779 780 780 780 781 778 778 777 776 783 778 780 787 788 791 796 800 803 808 808 809 811
758 762 765 767 769 771 773 775 775 776 777 777 777 778 778 778 779 779 779 779 779 780 781 782 783 781 782 782 781 782 784 783 783 788 793 795 797 799 803 806 808 811 812
755 759 762 765 768 770 773 774 775 777 777 777 777 777 778 778 780 781 782 783 783 783 784 784 784 785 785 785 785 786 788 788 790 794 795 797 800 801 806 808 810 812 816
755 758 761 764 766 768 770 772 773 774 776 778 779 779 779 781 782 783 785 785 786 786 784 785 787 788 787 787 788 788 788 790 793 795 796 797 801 803 808 809 811 814 816
755 758 761 764 766 767 769 771 773 775 776 778 779 780 781 782 783 784 785 785 785 784 785 786 786 787 788 789 790 791 791 794 794 795 797 800 802 805 806 809 813 815 816
755 758 761 764 766 768 769 770 772 775 776 777 777 779 780 782 782 783 785 786 786 786 786 786 787 788 788 789 790 791 792 792 793 797 798 801 803 806 809 810 813 814 816
754 757 760 763 765 766 768 770 771 773 773 775 776 777 778 779 781 782 782 784 786 786 787 788 789 789 790 790 791 791 792 793 795 797 799 802 804 806 808 810 811 812 814
753 756 759 761 764 766 768 769 771 771 772 773 775 776 777 778 780 781 781 783 784 785 786 787 788 788 789 789 790 791 792 794 796 797 799 801 803 805 807 808 809 810 812
752 755 758 760 763 765 767 769 770 771 772 773 774 776 776 778 779 779 780 782 783 784 785 786 787 787 787 788 789 790 791 793 794 796 798 801 803 804 805 806 807 807 809
751 754 757 760 762 763 765 767 768 769 771 771 772 773 774 775 776 777 778 779 780 781 781 781 782 783 784 785 787 788 790 792 793 795 797 798 799 800 800 802 803 804 805
749 752 754 757 758 760 762 764 764 766 767 768 769 770 770 771 773 774 775 776 776 777 777 777 778 779 780 781 782 784 785 786 789 790 792 794 796 797 799 800 801 801 802
747 750 753 754 756 757 759 760 762 763 764 765 766 767 767 768 769 770 771 772 772 773 773 774 775 776 777 777 778 780 781 782 784 786 789 791 792 792 793 794 795 796 797